| time (UTC) | temp F | wind direction | speed knots | gust knots | rain 1hr in | rain 24hr in | rain mn in | humidity % | barometer mb |
| 20260502140130 | 77 | 160 | 0.0 | 0.9 | 0.00 | 0.00 | 0.00 | 26 | 1016.4 |
| 20260502130555 | 75 | 49 | 1.7 | 1.7 | 0.00 | 0.00 | 0.00 | 25 | 1015.2 |
| 20260502123538 | 75 | 66 | 4.3 | 7.8 | 0.00 | 0.00 | 0.00 | 24 | 1015.0 |
| 20260502123034 | 76 | 89 | 5.2 | 9.6 | 0.00 | 0.00 | 0.00 | 24 | 1014.8 |
| 20260502122531 | 75 | 78 | 4.3 | 7.0 | 0.00 | 0.00 | 0.00 | 24 | 1014.9 |
| 20260502122028 | 75 | 20 | 2.6 | 7.8 | 0.00 | 0.00 | 0.00 | 24 | 1014.9 |
| 20260502121526 | 76 | 73 | 7.8 | 12.2 | 0.00 | 0.00 | 0.00 | 24 | 1014.6 |
| 20260502121023 | 75 | 77 | 5.2 | 8.7 | 0.00 | 0.00 | 0.00 | 24 | 1014.8 |
| 20260502120519 | 75 | 87 | 3.5 | 10.4 | 0.00 | 0.00 | 0.00 | 24 | 1014.7 |
| 20260502115514 | 75 | 89 | 3.5 | 10.4 | 0.00 | 0.00 | 0.00 | 25 | 1014.6 |
| 20260502115010 | 74 | 86 | 5.2 | 11.3 | 0.00 | 0.00 | 0.00 | 25 | 1014.6 |
| 20260502114507 | 70 | 193 | 1.7 | 3.5 | 0.00 | 0.00 | 0.00 | 28 | 1014.7 |
| 20260502114003 | 71 | 224 | 2.6 | 5.2 | 0.00 | 0.00 | 0.00 | 28 | 1014.8 |
| 20260502113501 | 73 | 28 | 0.0 | 2.6 | 0.00 | 0.00 | 0.00 | 27 | 1014.6 |
| 20260502113000 | 73 | 18 | 1.7 | 3.5 | 0.00 | 0.00 | 0.00 | 26 | 1014.7 |
| 20260502112457 | 73 | 0 | 3.5 | 4.3 | 0.00 | 0.00 | 0.00 | 26 | 1014.5 |
| 20260502111954 | 72 | 14 | 1.7 | 2.6 | 0.00 | 0.00 | 0.00 | 26 | 1014.6 |
| 20260502111451 | 71 | 304 | 0.0 | 1.7 | 0.00 | 0.00 | 0.00 | 28 | 1014.3 |
| 20260502110949 | 71 | 180 | 0.0 | 2.6 | 0.00 | 0.00 | 0.00 | 27 | 1014.4 |
| 20260502110446 | 71 | 30 | 1.7 | 2.6 | 0.00 | 0.00 | 0.00 | 28 | 1014.3 |
| 20260502105943 | 72 | 352 | 2.6 | 3.5 | 0.00 | 0.00 | 0.00 | 27 | 1014.3 |
| 20260502105441 | 73 | 327 | 3.5 | 4.3 | 0.00 | 0.00 | 0.00 | 26 | 1014.3 |
| 20260502104938 | 72 | 311 | 1.7 | 3.5 | 0.00 | 0.00 | 0.00 | 27 | 1014.2 |
| 20260502104435 | 72 | 304 | 3.5 | 4.3 | 0.00 | 0.00 | 0.00 | 27 | 1014.4 |
| 20260502103932 | 74 | 316 | 1.7 | 1.7 | 0.00 | 0.00 | 0.00 | 26 | 1014.4 |
| 20260502103430 | 74 | 48 | 2.6 | 2.6 | 0.00 | 0.00 | 0.00 | 25 | 1014.4 |
| 20260502102927 | 75 | 24 | 2.6 | 3.5 | 0.00 | 0.00 | 0.00 | 26 | 1014.4 |
| 20260502102424 | 75 | 33 | 3.5 | 4.3 | 0.00 | 0.00 | 0.00 | 25 | 1013.9 |
| 20260502101921 | 75 | 55 | 2.6 | 4.3 | 0.00 | 0.00 | 0.00 | 25 | 1013.9 |
| 20260502101419 | 75 | 78 | 4.3 | 4.3 | 0.00 | 0.00 | 0.00 | 24 | 1014.2 |
| 20260502100917 | 75 | 56 | 2.6 | 3.5 | 0.00 | 0.00 | 0.00 | 25 | 1014.2 |
| 20260502100416 | 74 | 45 | 2.6 | 2.6 | 0.00 | 0.00 | 0.00 | 25 | 1014.2 |
| 20260502091350 | 76 | 59 | 6.1 | 8.7 | 0.00 | 0.00 | 0.00 | 25 | 1014.1 |
| 20260502090848 | 76 | 71 | 5.2 | 7.0 | 0.00 | 0.00 | 0.00 | 25 | 1014.0 |
| 20260502090344 | 75 | 66 | 4.3 | 5.2 | 0.00 | 0.00 | 0.00 | 26 | 1014.0 |
| 20260502071239 | 73 | 37 | 4.3 | 7.8 | 0.00 | 0.00 | 0.00 | 30 | 1014.0 |
| 20260502070737 | 73 | 17 | 6.1 | 7.0 | 0.00 | 0.00 | 0.00 | 32 | 1013.8 |
| 20260502070235 | 75 | 34 | 6.1 | 6.1 | 0.00 | 0.00 | 0.00 | 29 | 1013.8 |
| 20260502065733 | 75 | 60 | 2.6 | 4.3 | 0.00 | 0.00 | 0.00 | 29 | 1013.7 |
| 20260502065231 | 75 | 82 | 2.6 | 7.0 | 0.00 | 0.00 | 0.00 | 30 | 1013.8 |
| 20260502064729 | 75 | 46 | 4.3 | 4.3 | 0.00 | 0.00 | 0.00 | 30 | 1013.5 |
| 20260502064226 | 75 | 68 | 2.6 | 4.3 | 0.00 | 0.00 | 0.00 | 30 | 1013.5 |
| 20260502063724 | 75 | 68 | 2.6 | 4.3 | 0.00 | 0.00 | 0.00 | 30 | 1013.5 |
| 20260502063222 | 75 | 68 | 2.6 | 4.3 | 0.00 | 0.00 | 0.00 | 30 | 1013.5 |
| 20260502062718 | 76 | 75 | 5.2 | 5.2 | 0.00 | 0.00 | 0.00 | 30 | 1013.3 |
| 20260502062216 | 76 | 75 | 2.6 | 2.6 | 0.00 | 0.00 | 0.00 | 29 | 1013.5 |
| 20260502061714 | 76 | 82 | 2.6 | 2.6 | 0.00 | 0.00 | 0.00 | 29 | 1013.4 |
| 20260502061211 | 76 | 72 | 1.7 | 2.6 | 0.00 | 0.00 | 0.00 | 30 | 1013.5 |
| 20260502060706 | 75 | 11 | 1.7 | 2.6 | 0.00 | 0.00 | 0.00 | 31 | 1013.2 |
| 20260502060203 | 75 | 11 | 1.7 | 2.6 | 0.00 | 0.00 | 0.00 | 31 | 1013.2 |
| 20260502055701 | 76 | 87 | 3.5 | 5.2 | 0.00 | 0.00 | 0.00 | 29 | 1012.7 |
| 20260502055158 | 77 | 88 | 4.3 | 4.3 | 0.00 | 0.00 | 0.00 | 29 | 1013.0 |
| 20260502054658 | 76 | 82 | 3.5 | 3.5 | 0.00 | 0.00 | 0.00 | 29 | 1012.9 |
| 20260502054154 | 76 | 31 | 2.6 | 2.6 | 0.00 | 0.00 | 0.00 | 29 | 1012.9 |
| 20260502053652 | 76 | 25 | 1.7 | 2.6 | 0.00 | 0.00 | 0.00 | 30 | 1012.9 |
| 20260502053148 | 77 | 44 | 2.6 | 4.3 | 0.00 | 0.00 | 0.00 | 29 | 1012.9 |
| 20260502052647 | 77 | 43 | 2.6 | 3.5 | 0.00 | 0.00 | 0.00 | 29 | 1012.7 |
| 20260502052145 | 77 | 43 | 2.6 | 3.5 | 0.00 | 0.00 | 0.00 | 29 | 1012.8 |
| 20260502051643 | 77 | 52 | 3.5 | 3.5 | 0.00 | 0.00 | 0.00 | 29 | 1012.9 |
| 20260502051141 | 77 | 52 | 2.6 | 4.3 | 0.00 | 0.00 | 0.00 | 29 | 1012.8 |
| 20260502050637 | 78 | 74 | 3.5 | 4.3 | 0.00 | 0.00 | 0.00 | 28 | 1012.8 |
| 20260502050133 | 78 | 78 | 4.3 | 5.2 | 0.00 | 0.00 | 0.00 | 28 | 1012.7 |
| 20260502045630 | 78 | 74 | 4.3 | 4.3 | 0.00 | 0.00 | 0.00 | 29 | 1012.7 |
| 20260502045128 | 78 | 66 | 2.6 | 4.3 | 0.00 | 0.00 | 0.00 | 28 | 1012.8 |
| 20260502044624 | 78 | 82 | 1.7 | 3.5 | 0.00 | 0.00 | 0.00 | 28 | 1012.6 |
| 20260502044120 | 78 | 62 | 1.7 | 3.5 | 0.00 | 0.00 | 0.00 | 27 | 1012.6 |
| 20260502043619 | 80 | 75 | 2.6 | 3.5 | 0.00 | 0.00 | 0.00 | 25 | 1012.5 |
| 20260502043115 | 80 | 74 | 1.7 | 2.6 | 0.00 | 0.00 | 0.00 | 25 | 1012.7 |
| 20260502042615 | 80 | 78 | 1.7 | 2.6 | 0.00 | 0.00 | 0.00 | 25 | 1012.6 |
| 20260502042112 | 80 | 82 | 0.9 | 1.7 | 0.00 | 0.00 | 0.00 | 25 | 1012.6 |
| 20260502041610 | 80 | 82 | 1.7 | 2.6 | 0.00 | 0.00 | 0.00 | 24 | 1012.5 |
| 20260502041107 | 81 | 65 | 1.7 | 2.6 | 0.00 | 0.00 | 0.00 | 25 | 1012.5 |
| 20260502040604 | 81 | 82 | 2.6 | 2.6 | 0.00 | 0.00 | 0.00 | 24 | 1012.5 |
| 20260502040101 | 80 | 62 | 1.7 | 2.6 | 0.00 | 0.00 | 0.00 | 25 | 1012.4 |
| 20260502035556 | 80 | 0 | 0.0 | 1.7 | 0.00 | 0.00 | 0.00 | 25 | 1012.5 |
| 20260502035054 | 80 | 7 | 0.9 | 0.9 | 0.00 | 0.00 | 0.00 | 25 | 1012.1 |
| 20260502034552 | 81 | 7 | 0.9 | 0.9 | 0.00 | 0.00 | 0.00 | 24 | 1012.1 |
| 20260502034050 | 81 | 82 | 0.0 | 0.0 | 0.00 | 0.00 | 0.00 | 24 | 1012.0 |
| 20260502033548 | 82 | 157 | 0.0 | 0.9 | 0.00 | 0.00 | 0.00 | 24 | 1012.1 |
| 20260502033045 | 82 | 137 | 0.0 | 1.7 | 0.00 | 0.00 | 0.00 | 23 | 1012.0 |
| 20260502032541 | 82 | 154 | 0.0 | 2.6 | 0.00 | 0.00 | 0.00 | 23 | 1011.8 |
| 20260502032037 | 82 | 115 | 1.7 | 1.7 | 0.00 | 0.00 | 0.00 | 23 | 1011.9 |
| 20260502031536 | 82 | 135 | 0.0 | 2.6 | 0.00 | 0.00 | 0.00 | 23 | 1011.7 |
| 20260502031033 | 82 | 140 | 1.7 | 2.6 | 0.00 | 0.00 | 0.00 | 23 | 1011.9 |
| 20260502030532 | 82 | 153 | 2.6 | 2.6 | 0.00 | 0.00 | 0.00 | 23 | 1011.8 |
| 20260502030029 | 83 | 172 | 0.9 | 1.7 | 0.00 | 0.00 | 0.00 | 23 | 1011.6 |
| 20260502025526 | 83 | 187 | 0.0 | 2.6 | 0.00 | 0.00 | 0.00 | 23 | 1011.5 |
| 20260502025025 | 83 | 262 | 0.0 | 1.7 | 0.00 | 0.00 | 0.00 | 22 | 1011.6 |
| 20260502024521 | 83 | 262 | 0.0 | 2.6 | 0.00 | 0.00 | 0.00 | 22 | 1011.6 |
| 20260502024020 | 83 | 182 | 1.7 | 4.3 | 0.00 | 0.00 | 0.00 | 22 | 1011.4 |
| 20260502023517 | 83 | 180 | 0.9 | 2.6 | 0.00 | 0.00 | 0.00 | 22 | 1011.3 |
| 20260502023014 | 84 | 183 | 2.6 | 4.3 | 0.00 | 0.00 | 0.00 | 22 | 1011.5 |
| 20260502022511 | 84 | 178 | 3.5 | 4.3 | 0.00 | 0.00 | 0.00 | 22 | 1011.5 |
| 20260502022009 | 84 | 164 | 3.5 | 3.5 | 0.00 | 0.00 | 0.00 | 22 | 1011.1 |
| 20260502021505 | 84 | 189 | 2.6 | 4.3 | 0.00 | 0.00 | 0.00 | 21 | 1011.0 |
| 20260502021002 | 85 | 208 | 0.0 | 3.5 | 0.00 | 0.00 | 0.00 | 20 | 1011.0 |
| 20260502020500 | 85 | 172 | 0.0 | 3.5 | 0.00 | 0.00 | 0.00 | 20 | 1011.0 |
| 20260502015956 | 85 | 220 | 1.7 | 2.6 | 0.00 | 0.00 | 0.00 | 21 | 1011.1 |
| 20260502015455 | 85 | 174 | 2.6 | 2.6 | 0.00 | 0.00 | 0.00 | 21 | 1011.0 |
| 20260502014951 | 86 | 240 | 4.3 | 4.3 | 0.00 | 0.00 | 0.00 | 21 | 1011.1 |
| 20260502014448 | 86 | 262 | 0.9 | 3.5 | 0.00 | 0.00 | 0.00 | 22 | 1011.0 |
| 20260502013944 | 86 | 270 | 1.7 | 4.3 | 0.00 | 0.00 | 0.00 | 21 | 1010.9 |
| 20260502013440 | 86 | 262 | 1.7 | 4.3 | 0.00 | 0.00 | 0.00 | 21 | 1011.0 |
| 20260502012936 | 86 | 278 | 1.7 | 5.2 | 0.00 | 0.00 | 0.00 | 21 | 1011.1 |
| 20260502012434 | 86 | 237 | 4.3 | 8.7 | 0.00 | 0.00 | 0.00 | 22 | 1011.2 |
| 20260502011932 | 86 | 232 | 0.0 | 4.3 | 0.00 | 0.00 | 0.00 | 21 | 1011.0 |
| 20260502011427 | 86 | 242 | 3.5 | 5.2 | 0.00 | 0.00 | 0.00 | 22 | 1011.3 |
| 20260502010925 | 86 | 227 | 3.5 | 6.1 | 0.00 | 0.00 | 0.00 | 22 | 1011.2 |
| 20260502010421 | 86 | 246 | 5.2 | 6.1 | 0.00 | 0.00 | 0.00 | 21 | 1010.8 |
| 20260502005918 | 86 | 254 | 5.2 | 7.8 | 0.00 | 0.00 | 0.00 | 21 | 1010.9 |
| 20260502005416 | 87 | 277 | 6.1 | 6.1 | 0.00 | 0.00 | 0.00 | 21 | 1010.9 |
| 20260502004914 | 87 | 291 | 2.6 | 3.5 | 0.00 | 0.00 | 0.00 | 21 | 1011.2 |
| 20260502004409 | 86 | 255 | 2.6 | 6.1 | 0.00 | 0.00 | 0.00 | 21 | 1010.9 |
| 20260502003907 | 87 | 279 | 2.6 | 8.7 | 0.00 | 0.00 | 0.00 | 21 | 1010.8 |
| 20260502003404 | 86 | 262 | 1.7 | 7.8 | 0.00 | 0.00 | 0.00 | 22 | 1011.1 |
| 20260502002900 | 87 | 158 | 3.5 | 6.1 | 0.00 | 0.00 | 0.00 | 21 | 1010.6 |
| 20260502002358 | 87 | 196 | 4.3 | 5.2 | 0.00 | 0.00 | 0.00 | 21 | 1011.2 |
| 20260502001854 | 86 | 223 | 4.3 | 6.1 | 0.00 | 0.00 | 0.00 | 21 | 1011.2 |
| 20260502001352 | 86 | 215 | 5.2 | 7.8 | 0.00 | 0.00 | 0.00 | 21 | 1011.2 |
| 20260502000849 | 86 | 212 | 4.3 | 9.6 | 0.00 | 0.00 | 0.00 | 22 | 1011.2 |
| 20260502000348 | 86 | 267 | 8.7 | 8.7 | 0.00 | 0.00 | 0.00 | 22 | 1011.2 |
| 20260501235843 | 86 | 224 | 6.1 | 9.6 | 0.00 | 0.00 | 0.00 | 21 | 1011.1 |
| 20260501235339 | 86 | 307 | 7.8 | 13.0 | 0.00 | 0.00 | 0.00 | 21 | 1011.2 |
| 20260501234834 | 87 | 282 | 7.0 | 13.0 | 0.00 | 0.00 | 0.00 | 21 | 1011.2 |
| 20260501234332 | 86 | 269 | 8.7 | 13.0 | 0.00 | 0.00 | 0.00 | 21 | 1011.5 |
| 20260501233831 | 86 | 305 | 4.3 | 9.6 | 0.00 | 0.00 | 0.00 | 20 | 1011.4 |
| 20260501233327 | 87 | 276 | 13.0 | 16.5 | 0.00 | 0.00 | 0.00 | 21 | 1011.3 |
| 20260501232823 | 87 | 310 | 2.6 | 4.3 | 0.00 | 0.00 | 0.00 | 20 | 1011.4 |
| 20260501232320 | 86 | 250 | 3.5 | 6.1 | 0.00 | 0.00 | 0.00 | 20 | 1011.4 |
| 20260501231818 | 85 | 296 | 2.6 | 10.4 | 0.00 | 0.00 | 0.00 | 21 | 1011.3 |
| 20260501231316 | 87 | 278 | 6.1 | 7.0 | 0.00 | 0.00 | 0.00 | 21 | 1011.5 |
| 20260501230814 | 86 | 220 | 5.2 | 10.4 | 0.00 | 0.00 | 0.00 | 21 | 1011.4 |
| 20260501230312 | 86 | 253 | 4.3 | 5.2 | 0.00 | 0.00 | 0.00 | 22 | 1011.2 |
| 20260501225809 | 85 | 241 | 5.2 | 9.6 | 0.00 | 0.00 | 0.00 | 23 | 1011.5 |
| 20260501225307 | 87 | 236 | 7.8 | 9.6 | 0.00 | 0.00 | 0.00 | 22 | 1011.4 |
| 20260501224803 | 86 | 213 | 3.5 | 5.2 | 0.00 | 0.00 | 0.00 | 23 | 1011.5 |
| 20260501224301 | 86 | 37 | 2.6 | 7.0 | 0.00 | 0.00 | 0.00 | 22 | 1011.6 |
| 20260501223756 | 86 | 280 | 6.1 | 13.0 | 0.00 | 0.00 | 0.00 | 22 | 1011.8 |
| 20260501223253 | 85 | 255 | 6.1 | 9.6 | 0.00 | 0.00 | 0.00 | 23 | 1011.7 |
| 20260501222749 | 86 | 205 | 2.6 | 5.2 | 0.00 | 0.00 | 0.00 | 23 | 1011.7 |
| 20260501222246 | 86 | 185 | 2.6 | 7.8 | 0.00 | 0.00 | 0.00 | 23 | 1011.8 |
| 20260501221744 | 84 | 217 | 1.7 | 11.3 | 0.00 | 0.00 | 0.00 | 25 | 1012.0 |
| 20260501221241 | 84 | 282 | 3.5 | 11.3 | 0.00 | 0.00 | 0.00 | 24 | 1011.9 |
| 20260501220738 | 84 | 259 | 9.6 | 13.0 | 0.00 | 0.00 | 0.00 | 24 | 1012.1 |
| 20260501220235 | 85 | 244 | 6.1 | 7.8 | 0.00 | 0.00 | 0.00 | 24 | 1012.1 |
| 20260501215733 | 84 | 245 | 6.1 | 8.7 | 0.00 | 0.00 | 0.00 | 24 | 1012.3 |
| 20260501215227 | 84 | 345 | 3.5 | 8.7 | 0.00 | 0.00 | 0.00 | 24 | 1012.3 |
| 20260501214723 | 86 | 235 | 7.8 | 9.6 | 0.00 | 0.00 | 0.00 | 24 | 1012.3 |
| 20260501214219 | 85 | 246 | 3.5 | 8.7 | 0.00 | 0.00 | 0.00 | 25 | 1012.6 |
| 20260501213716 | 84 | 338 | 2.6 | 4.3 | 0.00 | 0.00 | 0.00 | 24 | 1012.5 |
| 20260501213211 | 85 | 232 | 4.3 | 10.4 | 0.00 | 0.00 | 0.00 | 24 | 1012.5 |
| 20260501212702 | 84 | 253 | 5.2 | 9.6 | 0.00 | 0.00 | 0.00 | 24 | 1012.6 |
| 20260501212159 | 84 | 282 | 3.5 | 12.2 | 0.00 | 0.00 | 0.00 | 25 | 1012.6 |
| 20260501211656 | 84 | 324 | 2.6 | 7.8 | 0.00 | 0.00 | 0.00 | 26 | 1012.9 |
| 20260501211153 | 83 | 321 | 3.5 | 6.1 | 0.00 | 0.00 | 0.00 | 26 | 1012.7 |
| 20260501210650 | 84 | 244 | 0.0 | 7.8 | 0.00 | 0.00 | 0.00 | 26 | 1013.0 |
| 20260501210147 | 84 | 239 | 7.0 | 12.2 | 0.00 | 0.00 | 0.00 | 26 | 1012.9 |
| 20260501205643 | 83 | 349 | 6.1 | 9.6 | 0.00 | 0.00 | 0.00 | 26 | 1013.0 |
| 20260501205140 | 82 | 296 | 8.7 | 12.2 | 0.00 | 0.00 | 0.00 | 27 | 1013.2 |
| 20260501204637 | 82 | 322 | 8.7 | 11.3 | 0.00 | 0.00 | 0.00 | 27 | 1013.0 |
| 20260501204133 | 82 | 343 | 8.7 | 10.4 | 0.00 | 0.00 | 0.00 | 27 | 1013.0 |
| 20260501203630 | 84 | 232 | 6.1 | 7.8 | 0.00 | 0.00 | 0.00 | 26 | 1013.2 |
| 20260501203127 | 83 | 198 | 3.5 | 4.3 | 0.00 | 0.00 | 0.00 | 26 | 1013.4 |
| 20260501202624 | 83 | 141 | 4.3 | 7.8 | 0.00 | 0.00 | 0.00 | 27 | 1013.3 |
| 20260501202121 | 83 | 316 | 4.3 | 5.2 | 0.00 | 0.00 | 0.00 | 27 | 1013.5 |
| 20260501201618 | 82 | 292 | 4.3 | 9.6 | 0.00 | 0.00 | 0.00 | 27 | 1013.5 |
| 20260501201114 | 82 | 42 | 3.5 | 5.2 | 0.00 | 0.00 | 0.00 | 27 | 1013.7 |
| 20260501200612 | 83 | 267 | 3.5 | 7.0 | 0.00 | 0.00 | 0.00 | 27 | 1013.7 |
| 20260501200109 | 82 | 233 | 1.7 | 8.7 | 0.00 | 0.00 | 0.00 | 27 | 1013.6 |
| 20260501195607 | 82 | 255 | 5.2 | 8.7 | 0.00 | 0.00 | 0.00 | 28 | 1013.4 |
| 20260501195102 | 81 | 14 | 2.6 | 9.6 | 0.00 | 0.00 | 0.00 | 28 | 1013.6 |
| 20260501194557 | 81 | 304 | 4.3 | 12.2 | 0.00 | 0.00 | 0.00 | 29 | 1013.6 |
| 20260501194053 | 81 | 264 | 4.3 | 20.0 | 0.00 | 0.00 | 0.00 | 28 | 1013.7 |
| 20260501193551 | 80 | 290 | 3.5 | 7.0 | 0.00 | 0.00 | 0.00 | 29 | 1013.8 |
| 20260501193050 | 80 | 320 | 4.3 | 10.4 | 0.00 | 0.00 | 0.00 | 30 | 1013.9 |
| 20260501192546 | 81 | 269 | 6.1 | 8.7 | 0.00 | 0.00 | 0.00 | 29 | 1014.0 |
| 20260501192044 | 80 | 235 | 0.0 | 7.0 | 0.00 | 0.00 | 0.00 | 30 | 1014.1 |
| 20260501191540 | 80 | 309 | 6.1 | 7.0 | 0.00 | 0.00 | 0.00 | 30 | 1014.1 |
| 20260501191038 | 81 | 252 | 1.7 | 5.2 | 0.00 | 0.00 | 0.00 | 30 | 1014.4 |
| 20260501190533 | 81 | 71 | 2.6 | 3.5 | 0.00 | 0.00 | 0.00 | 30 | 1014.3 |
| 20260501190029 | 80 | 80 | 5.2 | 6.1 | 0.00 | 0.00 | 0.00 | 31 | 1014.4 |
| 20260501185525 | 81 | 65 | 6.1 | 7.0 | 0.00 | 0.00 | 0.00 | 30 | 1014.5 |
| 20260501185021 | 80 | 57 | 3.5 | 6.1 | 0.00 | 0.00 | 0.00 | 30 | 1014.3 |
| 20260501184517 | 80 | 12 | 3.5 | 3.5 | 0.00 | 0.00 | 0.00 | 31 | 1014.6 |
| 20260501184012 | 78 | 255 | 0.9 | 5.2 | 0.00 | 0.00 | 0.00 | 32 | 1014.5 |
| 20260501183510 | 80 | 82 | 0.0 | 3.5 | 0.00 | 0.00 | 0.00 | 31 | 1014.7 |
| 20260501183005 | 78 | 256 | 2.6 | 5.2 | 0.00 | 0.00 | 0.00 | 32 | 1014.7 |
| 20260501182503 | 79 | 240 | 4.3 | 6.1 | 0.00 | 0.00 | 0.00 | 32 | 1014.8 |
| 20260501181959 | 78 | 195 | 0.0 | 7.0 | 0.00 | 0.00 | 0.00 | 32 | 1015.1 |
| 20260501181456 | 79 | 198 | 1.7 | 5.2 | 0.00 | 0.00 | 0.00 | 32 | 1014.8 |
| 20260501180953 | 79 | 135 | 1.7 | 5.2 | 0.00 | 0.00 | 0.00 | 32 | 1015.0 |
| 20260501180451 | 78 | 203 | 3.5 | 7.8 | 0.00 | 0.00 | 0.00 | 33 | 1015.1 |
| 20260501175946 | 78 | 217 | 3.5 | 5.2 | 0.00 | 0.00 | 0.00 | 32 | 1015.2 |
| 20260501175444 | 78 | 187 | 5.2 | 7.0 | 0.00 | 0.00 | 0.00 | 32 | 1015.2 |
| 20260501174940 | 79 | 82 | 0.0 | 5.2 | 0.00 | 0.00 | 0.00 | 32 | 1015.3 |
| 20260501174438 | 77 | 96 | 2.6 | 7.0 | 0.00 | 0.00 | 0.00 | 34 | 1015.5 |
| 20260501173936 | 78 | 221 | 2.6 | 5.2 | 0.00 | 0.00 | 0.00 | 33 | 1015.2 |
| 20260501173433 | 77 | 41 | 3.5 | 7.0 | 0.00 | 0.00 | 0.00 | 34 | 1015.5 |
| 20260501172928 | 77 | 30 | 4.3 | 4.3 | 0.00 | 0.00 | 0.00 | 33 | 1015.3 |
| 20260501172424 | 76 | 359 | 0.9 | 6.1 | 0.00 | 0.00 | 0.00 | 33 | 1015.7 |
| 20260501171920 | 76 | 54 | 3.5 | 6.1 | 0.00 | 0.00 | 0.00 | 33 | 1015.3 |
| 20260501171416 | 76 | 131 | 1.7 | 4.3 | 0.00 | 0.00 | 0.00 | 33 | 1015.5 |
| 20260501170913 | 77 | 58 | 0.0 | 4.3 | 0.00 | 0.00 | 0.00 | 32 | 1015.8 |
| 20260501170410 | 76 | 78 | 1.7 | 5.2 | 0.00 | 0.00 | 0.00 | 34 | 1015.6 |
| 20260501165908 | 76 | 172 | 0.0 | 6.1 | 0.00 | 0.00 | 0.00 | 35 | 1015.6 |
| 20260501165406 | 76 | 117 | 2.6 | 6.1 | 0.00 | 0.00 | 0.00 | 35 | 1015.5 |
| 20260501164903 | 76 | 113 | 4.3 | 6.1 | 0.00 | 0.00 | 0.00 | 35 | 1015.5 |
| 20260501164401 | 76 | 249 | 1.7 | 6.1 | 0.00 | 0.00 | 0.00 | 35 | 1015.5 |
| 20260501163856 | 75 | 4 | 1.7 | 5.2 | 0.00 | 0.00 | 0.00 | 35 | 1015.5 |
| 20260501163353 | 75 | 103 | 0.9 | 5.2 | 0.00 | 0.00 | 0.00 | 37 | 1015.7 |
| 20260501162850 | 75 | 156 | 5.2 | 6.1 | 0.00 | 0.00 | 0.00 | 36 | 1015.5 |
| 20260501162346 | 77 | 144 | 2.6 | 2.6 | 0.00 | 0.00 | 0.00 | 36 | 1015.3 |
| 20260501161843 | 75 | 82 | 3.5 | 5.2 | 0.00 | 0.00 | 0.00 | 38 | 1015.5 |
| 20260501161340 | 75 | 158 | 2.6 | 3.5 | 0.00 | 0.00 | 0.00 | 38 | 1015.5 |
| 20260501160837 | 73 | 71 | 4.3 | 6.1 | 0.00 | 0.00 | 0.00 | 39 | 1015.6 |
| 20260501160333 | 74 | 112 | 2.6 | 7.8 | 0.00 | 0.00 | 0.00 | 39 | 1015.5 |
| 20260501155831 | 73 | 180 | 1.7 | 4.3 | 0.00 | 0.00 | 0.00 | 39 | 1015.3 |
| 20260501155328 | 72 | 201 | 0.9 | 7.0 | 0.00 | 0.00 | 0.00 | 41 | 1015.6 |
| 20260501154824 | 73 | 268 | 2.6 | 4.3 | 0.00 | 0.00 | 0.00 | 41 | 1015.5 |
| 20260501154322 | 73 | 172 | 1.7 | 2.6 | 0.00 | 0.00 | 0.00 | 41 | 1015.3 |
| 20260501153819 | 72 | 158 | 1.7 | 4.3 | 0.00 | 0.00 | 0.00 | 41 | 1015.3 |
| 20260501153317 | 73 | 184 | 5.2 | 7.0 | 0.00 | 0.00 | 0.00 | 41 | 1015.1 |
| 20260501152812 | 72 | 150 | 5.2 | 6.1 | 0.00 | 0.00 | 0.00 | 41 | 1015.1 |
| 20260501152310 | 72 | 181 | 4.3 | 6.1 | 0.00 | 0.00 | 0.00 | 41 | 1015.0 |
| 20260501151807 | 71 | 182 | 4.3 | 7.8 | 0.00 | 0.00 | 0.00 | 41 | 1015.0 |
| 20260501151303 | 71 | 138 | 5.2 | 7.0 | 0.00 | 0.00 | 0.00 | 42 | 1015.0 |
| 20260501150759 | 71 | 203 | 4.3 | 7.8 | 0.00 | 0.00 | 0.00 | 42 | 1014.9 |
| 20260501150256 | 72 | 157 | 6.1 | 6.1 | 0.00 | 0.00 | 0.00 | 41 | 1014.7 |
| 20260501145752 | 71 | 120 | 5.2 | 7.8 | 0.00 | 0.00 | 0.00 | 41 | 1014.9 |
| 20260501145250 | 71 | 112 | 4.3 | 5.2 | 0.00 | 0.00 | 0.00 | 41 | 1014.8 |
| 20260501144746 | 71 | 106 | 3.5 | 6.1 | 0.00 | 0.00 | 0.00 | 42 | 1014.8 |
| 20260501144242 | 71 | 121 | 5.2 | 6.1 | 0.00 | 0.00 | 0.00 | 42 | 1014.8 |
| 20260501143738 | 71 | 87 | 2.6 | 7.0 | 0.00 | 0.00 | 0.00 | 42 | 1014.7 |
| 20260501143235 | 71 | 124 | 5.2 | 5.2 | 0.00 | 0.00 | 0.00 | 43 | 1014.7 |
| 20260501142732 | 70 | 115 | 5.2 | 8.7 | 0.00 | 0.00 | 0.00 | 42 | 1014.6 |
| 20260501142228 | 70 | 111 | 3.5 | 6.1 | 0.00 | 0.00 | 0.00 | 42 | 1014.6 |